Miscellaneous Local Product
Issued by NWS North Platte, NE

Home | Current Version | Previous Version | Text Only | Print | Product List | Glossary On
Versions: 1 2 3 4 5 6 7 8 9 10 11 12 13 14 15 16 17 18 19 20 21 22 23 24 25 26 27 28 29 30 31 32 33 34 35 36 37 38 39 40 41 42 43 44 45 46 47 48 49 50
000
AXUS43 KLBF 171610
MISLBF


WESTERN AND NORTH CENTRAL NEBRASKA HOURLY WEATHER ROUNDUP
NATIONAL WEATHER SERVICE NORTH PLATTE NE
1100 AM CDT WED SEP 17 2014

***STATIONS NOT REPORTING VARIABLES SUCH AS SKY/WEATHER OR
PRESSURE ARE PROVIDED BY THE NEBRASKA DEPARTMENT OF
ROADS...RAWS...AND APRS NETWORKS...AND ARE NOT UNDER
NATIONAL WEATHER SERVICE QUALITY CONTROL***

...OBSERVATIONS IN AND NEAR THE EASTERN PANHANDLE OF NEBRASKA...

CITY           SKY/WX    TMP DP  RH WIND       PRES   REMARKS
PINE RIDGE     MOSUNNY   67  54  63 SW3       29.99R
CHADRON        SUNNY     70  50  49 NW6       30.00R
ALLIANCE       SUNNY     71  49  45 VRB3      29.99S
SIDNEY         SUNNY     74  43  32 NW9       30.02F
WHITECLAY        N/A     66  52  60 CALM        N/A
RUSHVILLE        N/A     74  44  34 NW9         N/A
CRESCENT LAKE    N/A     74  56  53 CALM        N/A
LISCO            N/A     70  50  48 W7          N/A
BIG SPRINGS      N/A     60  56  86 W3          N/A
$$

...OBSERVATIONS IN NORTH CENTRAL NEBRASKA...

CITY           SKY/WX    TMP DP  RH WIND       PRES   REMARKS
VALENTINE      SUNNY     71  57  61 SE3       29.94S
THEDFORD       SUNNY     76  60  57 CALM      29.95F
AINSWORTH      SUNNY     69  59  71 E6        29.95R
O`NEILL        SUNNY     67  62  82 CALM      29.95R
ORD            SUNNY     66  58  75 CALM      29.93S
BROKEN BOW     MOSUNNY   77  62  59 NE6       29.93S
SPRINGVIEW       N/A     65  61  86 CALM        N/A
ROSE             N/A     76  66  70 CALM        N/A
NEWPORT          N/A     72  63  71 E3          N/A
COMSTOCK         N/A     73  65  74 NE3         N/A
CHAMBERS         N/A     72  64  74 CALM        N/A
$$

...OBSERVATIONS IN SOUTHWEST NEBRASKA AND FAR NORTHEAST COLORADO...

CITY           SKY/WX    TMP DP  RH WIND       PRES   REMARKS
WRAY           FAIR      75  52  44 CALM      29.99F
HOLYOKE        FAIR      73  52  46 N3        30.00R
IMPERIAL       SUNNY     73  55  53 N3        29.98R
OGALLALA       SUNNY     68  59  72 CALM      29.97S
NORTH PLATTE   PTSUNNY   59  58  96 W5        29.96S FOG
MCCOOK         MOSUNNY   57  56  96 SW6       29.96S FOG
LEXINGTON      SUNNY     64  60  88 CALM      29.94S
PAXTON           N/A     56  55  96 CALM        N/A
SUTHERLAND       N/A     58  56  94 CALM        N/A
BRADY            N/A     60  57  91 CALM        N/A
GOTHENBURG       N/A     59  53  82 CALM        N/A
CALLAWAY         N/A     68  68  99 CALM        N/A
$$

...SOME WEATHER OBSERVATIONS FROM AROUND THE REGION...

CITY           SKY/WX    TMP DP  RH WIND       PRES   REMARKS
DENVER         PTSUNNY   76  39  26 SW7       30.11S
LARAMIE        SUNNY     67  37  33 S5        30.23S
CHEYENNE       MOSUNNY   75  42  30 VRB5      30.14S
SCOTTSBLUFF    SUNNY     70  48  45 NW13      30.02R
RAPID CITY     MOSUNNY   70  47  43 N7        29.98R
PIERRE         SUNNY     70  57  63 MISG      29.93R
WINNER         FAIR      71  58  63 E6        29.94R
SIOUX FALLS    MOSUNNY   66  55  67 NE5       29.94R
OMAHA          MOSUNNY   68  58  70 SE3       29.94R
GRAND ISLAND   SUNNY     67  55  65 N5        29.94F
KANSAS CITY    CLOUDY    67  65  93 SE5       29.94S
WICHITA        MOSUNNY   82  66  58 SW8       29.91S
HAYS           SUNNY     72  61  68 N8        29.94R
LIBERAL        PTSUNNY   79  63  57 W15       29.99S
GOODLAND       SUNNY     76  52  43 E5        30.00S
$$



USA.gov is the U.S. government's official web portal to all federal, state and local government web resources and services.